Airfield :
LOGIN :

Register | Disclaimer

   EN    FR    IT 

 










Legend :    VFR   Marginal VFR   IFR   Intensive IFR   Very Intensive IFR
Visi :
Ceiling :
>= 8 km
>= 3000ft
5 to 8 km
1000 to 3000 ft
1500m to 5 km
500 to 1000 ft
800 to 1500m
200 to 500 ft
< 800m
< 200 ft
Symbols :   Thunderstorms  Fog  Heavy snow  Heavy precipitations  Wind > 20 kt
SIGMETs :     Misc.  Thunderstorms  Icing  Turbulence  Mountain Waves  Volcanic Ashes






- Airport Elevation : 525 ft
- IATA code : VAF


LFLU - Valence

CURRENT METAR :
  • 191100Z AUTO 36006KT 300V050 9999 FEW035/// BKN066/// OVC090/// ///TCU 20/12 Q1016

EXPIRED METARs :
  • 191030Z AUTO 36005KT 300V030 9999 FEW035 BKN090 19/13 Q1016
  • 191000Z AUTO 01006KT 340V060 9999 FEW034 BKN047 OVC086 19/12 Q1016
  • 190930Z AUTO 02003KT 280V080 9999 FEW052 BKN098 20/12 Q1016
  • 190900Z AUTO VRB01KT 9999 SCT088 18/13 Q1016
  • 190830Z AUTO 00000KT 9999 BKN074 OVC092 16/14 Q1016

TAF N/A



MET'MAP, your aeronautical weather chart ! - Copyright ORBIFLY December 2007 - Disclaimer

ORBIFLY MET'MAP TEAM :

Programming & Development : Alexandra Zaïnal
Concept & original design : Baudouin d'Aumeries
Assistance for programming : Marc-Olivier Méhu
Technical & hardware support : Manuel Goepfert

Contact : metmap@orbifly.com




SOURCES & CREDITS :

   NOAA